KB2UHF-8 Weather Reports


time (UTC)temp
F
wind
direction
speed
knots
gust
knots
rain 1hr
in
rain 24hr
in
rain mn
in
humidity
%
barometer
mb
20260903011515 77 0.0 0.0 0.00 0.00 0.00 79 1012.7
20260903010515 78 0.0 0.0 0.00 0.00 0.00 79 1012.7
20260903005515 79 0.0 0.0 0.00 0.00 0.00 78 1012.5
20260903004535 79 0.0 0.9 0.00 0.00 0.00 77 1012.7
20260903003515 80 0.0 1.7 0.00 0.00 0.00 75 1012.8
20260903002517 82 0.0 2.6 0.00 0.00 0.00 72 1012.7
20260903001515 83 0.0 0.9 0.00 0.00 0.00 70 1012.9
20260903000535 83 0.0 1.7 0.00 0.00 0.00 70 1012.8
20260902235515 83 0.0 0.0 0.00 0.00 0.00 70 1012.8
20260902234535 83 225 0.9 4.3 0.00 0.00 0.00 67 1012.8
20260902233535 85 0.0 1.7 0.00 0.00 0.00 66 1012.8
20260902232515 85 0.0 1.7 0.00 0.00 0.00 68 1012.9
20260902231515 85 225 0.9 4.3 0.00 0.00 0.00 67 1013.0
20260902230517 84 248 1.7 3.5 0.00 0.00 0.00 66 1013.0
20260902225519 85 248 2.6 3.5 0.00 0.00 0.00 65 1012.8
20260902224517 85 248 3.5 7.0 0.00 0.00 0.00 63 1012.8
20260902223517 86 225 1.7 3.5 0.00 0.00 0.00 63 1013.0
20260902222517 85 248 1.7 6.1 0.00 0.00 0.00 66 1013.1
20260902221517 86 225 2.6 7.0 0.00 0.00 0.00 65 1013.0
20260902220537 87 225 1.7 5.2 0.00 0.00 0.00 64 1013.1
20260902215537 86 248 1.7 3.5 0.00 0.00 0.00 64 1013.0
20260902214517 86 270 1.7 3.5 0.00 0.00 0.00 64 1013.0
20260902213517 86 225 3.5 7.8 0.00 0.00 0.00 62 1013.1
20260902212539 86 225 1.7 5.2 0.00 0.00 0.00 63 1013.0
20260902211537 87 225 1.7 6.1 0.00 0.00 0.00 61 1013.3
20260902210517 86 180 1.7 6.1 0.00 0.00 0.00 66 1013.2
20260902205517 86 225 1.7 5.2 0.00 0.00 0.00 66 1013.1
20260902204517 85 225 2.6 5.2 0.00 0.00 0.00 66 1013.3
20260902203517 84 225 2.6 7.0 0.00 0.00 0.00 70 1013.6
20260902202517 85 203 3.5 9.6 0.00 0.00 0.00 67 1013.8
20260902201517 84 225 4.3 9.6 0.00 0.00 0.00 68 1013.9
20260902200517 83 225 3.5 9.6 0.00 0.00 0.00 68 1013.9
20260902195517 83 225 3.5 7.8 0.00 0.00 0.00 68 1013.8
20260902194518 83 225 4.3 12.2 0.00 0.00 0.00 70 1013.9
20260902193517 83 248 4.3 11.3 0.00 0.00 0.00 71 1014.2
20260902192537 83 203 2.6 13.0 0.00 0.00 0.00 75 1014.2
20260902191517 82 225 5.2 8.7 0.00 0.00 0.00 77 1014.3
20260902190517 82 248 1.7 6.1 0.00 0.00 0.00 78 1014.4
20260902185517 81 225 3.5 7.8 0.00 0.00 0.00 78 1014.4
20260902184517 81 225 2.6 6.1 0.00 0.00 0.00 78 1014.3
20260902183517 82 248 2.6 7.0 0.00 0.00 0.00 76 1014.2
20260902182517 82 225 0.9 3.5 0.00 0.00 0.00 77 1014.4
20260902181517 82 225 1.7 5.2 0.00 0.00 0.00 77 1014.3
20260902180516 82 225 1.7 5.2 0.00 0.00 0.00 78 1014.0
20260902175517 82 225 1.7 3.5 0.00 0.00 0.00 78 1014.3
20260902174517 81 225 2.6 7.0 0.00 0.00 0.00 77 1014.4
20260902173517 82 180 2.6 7.0 0.00 0.00 0.00 76 1014.3
20260902172517 82 225 1.7 6.1 0.00 0.00 0.00 76 1014.5
20260902171517 82 225 2.6 5.2 0.00 0.00 0.00 78 1014.5
20260902170517 81 225 0.9 4.3 0.00 0.00 0.00 77 1014.6
20260902165538 81 158 3.5 6.1 0.00 0.00 0.00 78 1014.5
20260902164517 80 158 4.3 8.7 0.00 0.00 0.00 77 1014.4
20260902163517 80 135 2.6 5.2 0.00 0.00 0.00 79 1014.7
20260902162516 79 158 4.3 7.8 0.00 0.00 0.00 79 1014.7
20260902161516 79 180 3.5 7.8 0.00 0.00 0.00 78 1014.7
20260902160516 78 135 3.5 7.0 0.00 0.00 0.00 78 1014.6
20260902155517 78 158 1.7 4.3 0.00 0.00 0.00 81 1014.4
20260902154517 77 180 2.6 6.1 0.00 0.00 0.00 81 1014.5
20260902153517 76 113 2.6 7.0 0.00 0.00 0.00 83 1014.2
20260902152517 75 158 0.9 4.3 0.00 0.00 0.00 85 1014.5
20260902151516 74 113 4.3 7.0 0.00 0.00 0.00 83 1014.2
20260902150516 74 158 0.9 4.3 0.00 0.00 0.00 84 1014.6
20260902145516 73 135 1.7 6.1 0.00 0.00 0.00 85 1014.5
20260902144517 73 135 5.2 8.7 0.00 0.00 0.00 84 1014.3
20260902143517 73 113 4.3 7.8 0.00 0.00 0.00 85 1014.3
20260902142516 72 135 1.7 3.5 0.00 0.00 0.00 88 1014.6
20260902141516 71 90 2.6 7.0 0.00 0.00 0.00 87 1014.6
20260902140516 70 90 1.7 6.1 0.00 0.00 0.00 90 1014.9
20260902135516 69 248 0.9 5.2 0.00 0.00 0.00 92 1015.2
20260902134517 69 135 0.9 2.6 0.00 0.00 0.00 92 1014.8
20260902133516 68 113 0.9 2.6 0.00 0.00 0.00 93 1014.7
20260902132536 68 90 1.7 4.3 0.00 0.00 0.00 93 1014.7
20260902131517 67 90 1.7 3.5 0.00 0.00 0.00 93 1015.0
20260902130516 67 113 2.6 6.1 0.00 0.00 0.00 93 1014.6
20260902125538 67 113 2.6 5.2 0.00 0.00 0.00 93 1014.7
20260902124516 67 90 0.9 3.5 0.00 0.00 0.00 94 1014.8
20260902123516 67 68 2.6 7.0 0.00 0.00 0.00 94 1014.6
20260902122536 66 68 2.6 6.1 0.00 0.00 0.00 95 1014.3
20260902121516 67 113 6.1 9.6 0.00 0.00 0.00 94 1014.1
20260902120516 67 68 4.3 7.8 0.00 0.00 0.00 94 1014.2
20260902115556 67 90 6.1 9.6 0.00 0.00 0.00 94 1014.7
20260902114516 67 0 1.7 4.3 0.00 0.00 0.00 94 1015.7
20260902113516 67 293 0.9 3.5 0.00 0.00 0.00 94 1015.7
20260902112518 67 338 2.6 7.8 0.00 0.00 0.00 94 1015.5
20260902111516 67 0.0 3.5 0.00 0.00 0.00 93 1015.2
20260902110516 68 45 1.7 4.3 0.00 0.00 0.00 93 1014.9
20260902105518 68 113 1.7 6.1 0.00 0.00 0.00 93 1014.2
20260902104517 68 68 1.7 4.3 0.00 0.00 0.00 93 1014.3
20260902103516 68 68 2.6 5.2 0.00 0.00 0.00 92 1014.2
20260902102556 68 45 1.7 4.3 0.00 0.00 0.00 92 1014.3
20260902101516 68 68 2.6 6.1 0.00 0.00 0.00 92 1014.1
20260902100516 68 90 2.6 7.0 0.00 0.00 0.00 91 1014.3
20260902095536 69 90 2.6 5.2 0.00 0.00 0.00 90 1014.3
20260902094536 69 45 1.7 5.2 0.00 0.00 0.00 90 1014.6
20260902093516 69 68 1.7 3.5 0.00 0.00 0.00 89 1014.6
20260902092516 69 68 0.9 2.6 0.00 0.00 0.00 89 1014.6
20260902091516 69 0.0 2.6 0.00 0.00 0.00 88 1014.7
20260902090516 70 338 0.9 3.5 0.00 0.00 0.00 88 1015.0
20260902085516 70 315 1.7 7.0 0.00 0.00 0.00 87 1015.4
20260902084536 70 315 3.5 9.6 0.00 0.00 0.00 87 1015.5
20260902083516 71 315 8.7 16.5 0.00 0.00 0.00 86 1016.0
20260902082516 72 293 5.2 11.3 0.00 0.00 0.00 87 1016.1
20260902081516 72 113 5.2 21.7 0.00 0.00 0.00 86 1014.3
20260902080516 73 135 1.7 3.5 0.00 0.00 0.00 84 1013.8
20260902075516 73 113 3.5 5.2 0.00 0.00 0.00 83 1013.8
20260902074516 73 113 3.5 6.1 0.00 0.00 0.00 83 1013.8
20260902073516 73 90 3.5 6.1 0.00 0.00 0.00 83 1013.8
20260902072516 73 113 1.7 5.2 0.00 0.00 0.00 86 1014.0
20260902071516 73 113 2.6 5.2 0.00 0.00 0.00 87 1013.9
20260902070516 73 90 3.5 5.2 0.00 0.00 0.00 89 1014.0
20260902065516 73 113 2.6 5.2 0.00 0.00 0.00 89 1013.9
20260902064536 73 90 2.6 3.5 0.00 0.00 0.00 90 1014.0
20260902063516 73 90 0.9 4.3 0.00 0.00 0.00 90 1014.0
20260902062516 73 90 2.6 5.2 0.00 0.00 0.00 91 1013.8
20260902061515 73 68 2.6 4.3 0.00 0.00 0.00 91 1014.1
20260902060536 73 45 1.7 3.5 0.00 0.00 0.00 91 1014.3
20260902055515 73 68 3.5 7.0 0.00 0.00 0.00 94 1014.5
20260902054516 73 315 0.9 2.6 0.00 0.00 0.00 96 1014.8
20260902053516 73 315 1.7 4.3 0.00 0.00 0.00 96 1014.7
20260902052516 73 68 0.9 2.6 0.00 0.00 0.00 96 1014.3
20260902051516 73 45 0.9 3.5 0.00 0.00 0.00 96 1014.4
20260902050516 74 90 1.7 3.5 0.00 0.00 0.00 96 1014.3
20260902045516 74 68 1.7 2.6 0.00 0.00 0.00 95 1014.4
20260902044516 74 90 2.6 4.3 0.00 0.00 0.00 95 1014.3
20260902043517 74 0.0 2.6 0.00 0.00 0.00 94 1014.1
20260902042516 75 0.0 0.0 0.00 0.00 0.00 93 1014.2
20260902041516 75 0.0 0.0 0.00 0.00 0.00 93 1014.0
20260902040516 75 0.0 0.0 0.00 0.00 0.00 93 1013.9
20260902035516 75 0.0 1.7 0.00 0.00 0.00 93 1014.1
20260902034516 75 0.0 1.7 0.00 0.00 0.00 92 1014.3
20260902033516 76 0.0 2.6 0.00 0.00 0.00 92 1014.3
20260902032516 76 0.0 0.0 0.00 0.00 0.00 91 1014.3
20260902031516 76 90 1.7 2.6 0.00 0.00 0.00 90 1014.2
20260902030516 76 0.0 0.0 0.00 0.00 0.00 90 1014.3
20260902025518 76 0.0 0.0 0.00 0.00 0.00 90 1014.4
20260902024516 76 0.0 0.0 0.00 0.00 0.00 89 1014.5
20260902023516 76 0.0 0.0 0.00 0.00 0.00 89 1014.5
20260902022516 76 0.0 0.0 0.00 0.00 0.00 89 1014.5
20260902021516 77 0.0 0.0 0.00 0.00 0.00 89 1014.4
20260902020538 77 0.0 0.0 0.00 0.00 0.00 89 1014.3
20260902015516 77 0.0 0.9 0.00 0.00 0.00 89 1014.3
20260902014516 77 338 1.7 3.5 0.00 0.00 0.00 89 1014.1
20260902013516 77 0.0 0.0 0.00 0.00 0.00 88 1014.1
20260902012516 78 338 0.9 3.5 0.00 0.00 0.00 88 1013.8